Weather History for Cape Girardeau, MO

Change the Weather History Date:

Thursday, May 9, 2013

  Actual Average Record
Temperature  
Mean Temperature 70 °F 65 °F  
Max Temperature 80 °F 76 °F 89 °F (1963)
Min Temperature 60 °F 54 °F 36 °F (1976)
Degree Days  
Heating Degree Days 0 3  
Month to date heating degree days 60 32  
Since 1 July heating degree days 4326 4350  
Cooling Degree Days 5 3  
Month to date cooling degree days 8 19  
Year to date cooling degree days 33 50  
Growing Degree Days 20 (Base 50)    
Moisture  
Dew Point 60 °F    
Average Humidity 66    
Maximum Humidity 93    
Minimum Humidity 39    
Precipitation  
Precipitation T in 0.19 in 1.38 in (2014)
Month to date precipitation 1.87 1.75  
Year to date precipitation 14.69 17.39  
Sea Level Pressure  
Sea Level Pressure 29.96 in    
Wind  
Wind Speed 10 mph (South)    
Max Wind Speed 25 mph    
Max Gust Speed 36 mph    
Visibility 10 miles    
Events      
T = Trace of Precipitation, MM = Missing Value Source: NWS Daily Summary

Daily Weather History Graph

Daily Weather History Graph

Search for Another Location

Airport:

Trip Planner

Search our weather history database for the weather conditions in past years. The results will help you decide how hot, cold, wet, or windy it might be!

Date:

Astronomy

May. 09, 2013 Rise Set
Actual Time 5:54 AM CDT 7:55 PM CDT
Civil Twilight 5:26 AM CDT 8:23 PM CDT
Nautical Twilight 4:51 AM CDT 8:58 PM CDT
Astronomical Twilight 4:13 AM CDT 9:36 PM CDT
Moon 5:38 AM CDT (5/9) 7:50 PM CDT (5/9)
Length of Visible Light 14h 57m
Length of Day
14h 00m
Waning Crescent, 0% of the Moon is Illuminated
May 9
Waning Crescent
May 9
New
May 17
First Quarter
May 24
Full
May 31
Last Quarter

Hourly Weather History & Observations

Time (CDT) Temp. Dew Point Humidity Pressure Visibility Wind Dir Wind Speed Gust Speed Precip Events Conditions
12:53 AM 64.9 °F 61.0 °F 87% 30.00 in 10.0 mi Calm Calm - N/A   Overcast
1:53 AM 64.0 °F 61.0 °F 90% 30.00 in 10.0 mi Calm Calm - N/A   Mostly Cloudy
2:53 AM 64.0 °F 61.0 °F 90% 29.99 in 10.0 mi East 3.5 mph - N/A   Overcast
3:53 AM 63.0 °F 60.1 °F 90% 29.99 in 10.0 mi ESE 3.5 mph - N/A   Scattered Clouds
4:53 AM 62.1 °F 60.1 °F 93% 29.98 in 10.0 mi Calm Calm - N/A   Scattered Clouds
5:53 AM 63.0 °F 60.1 °F 90% 29.99 in 10.0 mi ESE 3.5 mph - N/A   Mostly Cloudy
6:53 AM 64.0 °F 60.1 °F 87% 30.00 in 9.0 mi Calm Calm - N/A   Partly Cloudy
7:53 AM 66.9 °F 60.1 °F 79% 30.00 in 10.0 mi South 8.1 mph - N/A   Scattered Clouds
8:53 AM 70.0 °F 60.1 °F 71% 30.00 in 10.0 mi SSW 9.2 mph - N/A   Scattered Clouds
9:53 AM 70.0 °F 61.0 °F 73% 30.00 in 10.0 mi South 8.1 mph - 0.00 in   Overcast
10:53 AM 72.0 °F 63.0 °F 73% 30.01 in 10.0 mi SSW 15.0 mph 20.7 mph N/A   Mostly Cloudy
11:53 AM 73.4 °F 64.4 °F 73% 30.01 in 10.0 mi SSW 11.5 mph - N/A   Overcast
12:53 PM 75.2 °F 62.6 °F 65% 29.96 in 10.0 mi SSW 15.0 mph 24.2 mph N/A   Clear
1:53 PM 79.0 °F 62.1 °F 56% 29.93 in 10.0 mi South 13.8 mph 24.2 mph N/A   Clear
2:53 PM 78.1 °F 59.0 °F 52% 29.92 in 10.0 mi SSW 15.0 mph 29.9 mph N/A   Clear
3:53 PM 79.0 °F 52.0 °F 39% 29.90 in 10.0 mi SSW 21.9 mph 34.5 mph N/A   Clear
4:53 PM 78.1 °F 54.0 °F 43% 29.91 in 10.0 mi SSW 16.1 mph 25.3 mph N/A   Scattered Clouds
5:53 PM 75.9 °F 55.9 °F 50% 29.90 in 10.0 mi SSW 15.0 mph 20.7 mph N/A   Scattered Clouds
6:53 PM 75.0 °F 57.0 °F 53% 29.90 in 10.0 mi SW 13.8 mph - N/A   Partly Cloudy
7:53 PM 73.0 °F 57.9 °F 59% 29.91 in 10.0 mi SSW 13.8 mph 20.7 mph N/A   Clear
8:53 PM 72.0 °F 59.0 °F 64% 29.91 in 10.0 mi SSW 12.7 mph - N/A   Clear
9:53 PM 71.1 °F 59.0 °F 66% 29.92 in 10.0 mi SSW 9.2 mph - N/A   Clear
10:53 PM 69.1 °F 60.1 °F 73% 29.94 in 10.0 mi SSW 9.2 mph - N/A   Clear
11:53 PM 69.8 °F 60.8 °F 73% 29.93 in 10.0 mi South 6.9 mph - N/A   Clear